Volver al catálogo

COSMOS 2251 DEB

ActivoLEO
NORAD 34574·DEBRIS·🇷🇺 Russia

Lanzado Jun 16, 1993 desde Plesetsk Cosmodrome

Loading…

Próximos Pases (próximas 24 horas)

TLE

ActualizadoSource: Space-Track

Época: Sep 14, 2026, 22:01 UTC

1 34574U 93036VL  26257.91744661  .00003737  00000-0  55560-3 0  9998
2 34574  74.0658 226.4331 0063938 178.2307 213.3515 14.73952601928448

Sigue COSMOS 2251 DEB en tiempo real con AllMySat

Download on the App Store